Location: Unspecified
(0.0000°N, 0.0000°E)
Time: 18:18:35
(UTC+00:00)

Vanguard 1 Rocket - Pass Details

Date: 21 April 2026
Orbit: 655 x 4212 km, 34.3° (Epoch: 17 May)

Event Time Altitude Azimuth Distance (km) Brightness Sun altitude
Rises 23:37:26 0° 303° (WNW) 8,413 12.5 -77.1°
Reaches altitude 10° 23:47:06 10° 319° (NW) 7,368 12.0 -77.9°
Maximum altitude 00:02:41 19° 358° (N) 5,949 11.5 -78.2°
Drops below altitude 10° 00:14:50 10° 39° (NE) 5,715 11.5 -77.6°
Sets 00:20:39 0° 56° (NE) 6,096 11.8 -77.0°
